Regional Weather Roundup
Issued by NWS Wakefield, VA

Home | Current Version | Previous Version | Text Only | Print | Product List | Glossary Off
Versions: 1 2 3 4 5 6 7 8 9 10 11 12 13 14 15 16 17 18 19 20 21 22 23 24 25 26 27 28 29 30 31 32 33 34 35 36 37 38 39 40 41 42 43 44 45 46 47 48 49 50

000
ASUS41 KAKQ 212210
RWRAKQ

REGIONAL WEATHER ROUNDUP
NATIONAL WEATHER SERVICE WAKEFIELD VA
600 PM EDT THU AUG 21 2014

Note: "fair" indicates few or no clouds below 12,000 feet with no
significant weather and/or obstructions to visibility. * = Denotes
station may not report precipitation (e.g., rain,snow,etc.),
thunder or fog.

VAZ042-051-052>054-056-212300-
NORTHERN VIRGINIA

CITY           SKY/WX    TMP DP  RH WIND       PRES   REMARKS
WASH NATIONAL  LGT RAIN  81  71  71 W10       30.00R
DULLES         TSTM      72  70  93 S9        30.01S
FORT BELVOIR   LGT RAIN  73  70  88 SE5       30.01R
QUANTICO       CLOUDY    84  73  70 S3        30.00S THUNDER
FREDERICKSBRG* CLOUDY    84  73  69 CALM      29.99S
STAFFORD*      CLOUDY    81  76  85 CALM      30.04S
WARRENTON      CLOUDY    82  78  89 CALM      30.00F
CULPEPER*      CLOUDY   N/A N/A N/A SW6       30.01S
MANASSAS*      MOSUNNY   81  70  69 CALM      30.00
LEESBURG*      CLOUDY    75  73  94 S3        30.01F
WINCHESTER     CLOUDY    81  66  61 W7        30.01F
$$

VAZ048-049-060>072-079>083-212300-
CENTRAL AND SOUTH CENTRAL VIRGINIA...AND NORTH CENTRAL NORTH CAROLINA

CITY           SKY/WX    TMP DP  RH WIND       PRES   REMARKS
RICHMOND       CLOUDY    88  68  51 W8        30.00S
CHESTERFIELD*  CLOUDY    86  64  48 NW5       30.02F
HANOVER        CLOUDY    86  71  60 W6        30.02S
TAPPAHANNOCK*  CLOUDY    84  73  70 CALM      30.00S
CHARLOTTSVILLE CLOUDY    82  70  66 SW5       30.01F
ORANGE*        CLOUDY    82  70  65 CALM      30.02F
LOUISA*        CLOUDY    82  73  74 CALM      30.01S
FARMVILLE*     CLOUDY    88  66  48 CALM      29.99F
SOUTH HILL*    PTSUNNY   88  75  66 CALM      30.07F HX  97
ROANOKE RAPIDS MOCLDY    88  72  58 W3        30.01S
RALEIGH        PTSUNNY   88  68  51 NW6       30.03F
$$

VAZ088>098-212300-
SOUTHEAST VIRGINIA

CITY           SKY/WX    TMP DP  RH WIND       PRES   REMARKS
NORFOLK        CLOUDY    83  71  67 NE5       30.00S
VIRGINIA BEACH CLOUDY    82  70  66 E7        30.00R
NORFOLK NAVAL  CLOUDY    85  71  63 SE3       30.01F
WEST POINT*    CLOUDY    85  68  57 S3        30.00F
NEWPORT NEWS   CLOUDY    87  74  64 E7        29.99F HX  95
LANGLEY AFB    CLOUDY    84  74  70 E6        29.99S
FORT EUSTIS    CLOUDY    85  71  62 S2        29.98F
WILLIAMSBURG*  CLOUDY    86  77  74 CALM      30.00F HX  97
FRANKLIN*      CLOUDY    88  73  62 CALM      30.00F HX  96
WAKEFIELD      CLOUDY    87  73  62 CALM      30.00F
$$

VAZ020-022-025-037-045-212300-
WESTERN AND SOUTHWEST VIRGINIA

CITY           SKY/WX    TMP DP  RH WIND       PRES   REMARKS
STAUNTON*      CLOUDY    82  66  58 NW5       30.06F
HOT SPRINGS VA LGT RAIN  62  61  97 W10       30.21F
LYNCHBURG        N/A    N/A N/A N/A CALM      30.06F
DANVILLE       CLOUDY    87  71  58 SW7       30.04F
MARTINSVILLE   LGT RAIN  80  75  84 CALM      30.08S
ROANOKE        TSTM      80  69  69 W13       30.08S
BLACKSBURG     CLOUDY    81  72  74 CALM      30.15R
DUBLIN*        LGT RAIN  79  72  79 W7        30.15S
MARION*        PTSUNNY   77  69  76 W7        30.21R
HILLSVILLE*    PTSUNNY   79  66  65 W6        30.18S
RICHLANDS*     PTCLDY    77  71  81 CALM      30.19R
WISE*          CLOUDY    75  68  78 W6        30.22R THUNDER
ABINGDON*      PTSUNNY   82  71  68 W9        30.16S
$$

MDZ021>025-VAZ099-100-212300-
SOUTHERN MARYLAND AND THE DELMARVA PENINSULA

CITY           SKY/WX    TMP DP  RH WIND       PRES   REMARKS
PATUXENT RIVER CLOUDY    81  74  79 SE5       29.99S
BAY BRIDGE APT   N/A     82  68  61 CALM      29.99R
LEONARDTOWN    CLOUDY    82  72  69 CALM      30.01S
DOVER          CLOUDY    76  72  86 SE8       29.99F
GEORGETOWN     CLOUDY    77  71  82 SE9G21    30.01F
EASTON         SUNNY     86  72  62 CALM      30.02F
CAMBRIDGE      CLOUDY    84  72  65 S3        29.98S
SALISBURY      CLOUDY    79  74  84 SE9       30.00S
OCEAN CITY     PTSUNNY   78  72  81 S6        30.01F
WALLOPS ISLAND CLOUDY    79  73  82 S10       30.01F
ACCOMACK*      CLOUDY    79  73  83 S3        30.01S
$$

NCZ012>017-030>032-212300-
EASTERN NORTH CAROLINA

CITY           SKY/WX    TMP DP  RH WIND       PRES   REMARKS
ELIZABETH CITY CLOUDY    85  76  74 E5        30.01R
AHOSKIE*       PTSUNNY   84  75  73 CALM      30.01S
EDENTON*       CLOUDY    87  74  64 NW3       30.01R HX  95
CURRITUCK*     CLOUDY    87  71  58 CALM      30.01S
KILL DEVIL HLS CLOUDY    85  73  67 CALM      29.99F
MANTEO         CLOUDY    84  73  70 SW7       30.00F
CAPE HATTERAS  CLOUDY    83  77  82 SW7       30.02S
GOLDSBORO      MOSUNNY   91  74  57 W8        30.00S HX 100
WASHINGTON     PTSUNNY   88  74  61 N5        30.01S HX  96
GREENVILLE     MOSUNNY   90  73  58 W3        30.02F HX  98
NEW BERN       MOSUNNY   89  75  63 SW5       30.01F HX  99
WILMINGTON     PTSUNNY   87  72  60 W5        30.01F
$$

VAZ048-212300-
ELSEWHERE

CITY           SKY/WX    TMP DP  RH WIND       PRES   REMARKS
HARRISBURG PA  TSTM      76  71  85 NE6       29.98R
BALTIMORE      CLOUDY    82  73  74 S5        29.98S
ANNAPOLIS      CLOUDY    81  71  71 S5        29.98S
ANDREWS AFB    LGT RAIN  80  73  79 SW10      30.00S
WILMINGTON DE  CLOUDY    78  71  79 S14       30.00F
PHILADELPHIA   CLOUDY    82  69  64 S8        29.99F
WILDWOOD NJ*   CLOUDY    75  64  69 SE10      30.03F
ATLANTIC CITY  CLOUDY    75  63  66 S10       30.02F
HENDERSON NC   MOSUNNY   85  69  59 CALM      30.04S HAZE
GREENSBORO     PTSUNNY   87  68  52 SW6       30.06F
ROCKY MOUNT    MOSUNNY   89  71  55 W5        30.01F HX  95
FAYETTEVILLE   MOSUNNY   94  65  38 NW3       30.01F HX  96
CHARLOTTE      MOSUNNY   90  63  40 S5        30.07F
$$

VAZ100-212300-
MARINE

STATION/POSITION TIME  TEMP    WIND        PRES    WAVE   SWELL
                       AIR SEA DIR/SP/G            HT/PER HT/PER
                 (UTC) (F)     (DEG/KT/KT) (MB)    (FT/S) (FT/S)
44066 TX TWR #4  2200   72 74   90/  4/  6 1017.2R   4/ 7   3/ 7
CAPE MAY NJ      2200   75 82  140/  6/  9 1015.8F
LEWES DE         2200   76 76  150/  8/ 12 1015.9S
15NM E FENWICK I 2200   75 76              1016.1F   2/ 6
OCEAN-CITY-INLET 2200   77 77  170/  7/  9 1016.1R
WACHAPREAGUE VA  2200   78 83  180/  7/ 10 1015.9F
THOMAS POINT MD  2200   80 79  200/  8/  8 1015.9S
GOOSES REEF MD   2200   81     200/  8/ 10 1015.9R
COVE POINT MD    2200   80     190/  8/  9 1015.3S
SOLOMONS ISLAND  2200      80                N/A
BISHOPS HEAD MD  2200   82 84  180/  6/  7 1015.1F
PINEY POINT MD   2200          160/  7/  8   N/A
POTOMAC MD       2200   81     170/  8/  8 1015.0S
CAMBRIDGE MD     2200   83 78  320/  3/  4 1015.1R
LEWISETTA VA     2200   82 82  160/  5/  6 1015.2S
RAPPAHANNOCK LGT 2200           90/  5/  6 1016.4F
STINGRAY PT      2200   81     160/  6/  8 1016.5F
YORK RVR RNG VA  2200   81     140/  6/  7 1015.4F
YORKTOWN VA      2200   84 81  130/  4/  5 1015.6S
JAMESTOWN VA     2200   86        CALM       N/A
DOMINION TERM VA 2200   85     100/  1/  4 1016.1S
KIPTOPEKE VA     2200      82  140/  1/  2   N/A
CHES BAY BRIDGE  2200   81 78   50/  2/  3 1015.7R
CAPE HENRY VA    2200   82      40/  3/  3 1014.9S
CHESAPEAKE LGHT  2100   78      90/  6/  6 1016.8F
WILLOUBY STN VA  2200   82     110/  6/  6 1014.9F
S CRANEY ISL VA  2200           50/  3/  3 1015.8R
CAPE HENRY BUOY  2200      80                N/A     2/ 7
1ST LANDING BUOY 2200   81      80/  2/  4 1015.8R
CAPE CHARLES BUO 2200      79                N/A     2/ 6   2/ 6
OFFSHORE WE BUOY 2200      80                N/A     3/ 7   2/ 7
64NM E OF VA BCH 2200   79 78  140/  6/  8 1015.9S   2/ 7   2/ 7
DUCK PIER NC     2200   83 78  120/  4/  5 1015.5R
44056 DUCK FRF   2200                        N/A     2/ 7
OREGON INLET NC  2200   82 83  210/  8/ 10 1016.2F
HATTERAS NC      2200   84 83  250/  5/  7 1017.0S
DIAMOND SHLS NC  2200   82     200/  6/  8 1016.4F   2/ 9   2/ 9
CAPE LOOKOUT NC  2100   83     210/  5/  7 1016.7R
$$


USA.gov is the U.S. government's official web portal to all federal, state and local government web resources and services.